This is the latest recevied weather packets stored in our database for station/object W5ADC. If no packets are shown the sender has not sent any weather packets the latest 10 day(s).
| Time | Temp. | Humidity | Pressure | Rain* | Wind** | Luminosity | Snow |
|---|---|---|---|---|---|---|---|
| 1788446383 | 26.67° C | 88% | 1010.4 hPa | 0 mm | - | 117 W/m² | - |
| 1788446080 | 26.67° C | 88% | 1010.4 hPa | 0 mm | - | 116 W/m² | - |
| 1788445775 | 26.11° C | 89% | 1010.4 hPa | 0 mm | - | 110 W/m² | - |
| 1788445471 | 26.11° C | 89% | 1010.5 hPa | 0 mm | - | 75 W/m² | - |
| 1788445167 | 26.11° C | 89% | 1010.6 hPa | 0 mm | - | 95 W/m² | - |
| 1788444862 | 26.11° C | 89% | 1010.7 hPa | 0 mm | - | 67 W/m² | - |
| 1788444558 | 26.11° C | 89% | 1010.6 hPa | 0 mm | - | 105 W/m² | - |
| 1788444253 | 26.11° C | 89% | 1010.8 hPa | 0 mm | - | 104 W/m² | - |
| 1788443948 | 26.11° C | 89% | 1010.6 hPa | 0 mm | - | 115 W/m² | - |
| 1788443644 | 26.11° C | 90% | 1010.6 hPa | 0 mm | - | 82 W/m² | - |
| 1788443343 | 25.56° C | 90% | 1010.5 hPa | 0 mm | - | 64 W/m² | - |
| 1788443037 | 25.56° C | 91% | 1010.4 hPa | 0 mm | - | 42 W/m² | - |
| 1788442735 | 25.56° C | 91% | 1010.6 hPa | 0 mm | - | 31 W/m² | - |
| 1788442426 | 25.56° C | 90% | 1010.4 hPa | 0 mm | - | 27 W/m² | - |
| 1788442126 | 25.56° C | 90% | 1010.3 hPa | 0 mm | - | 34 W/m² | - |
| 1788441822 | 25.56° C | 90% | 1010.5 hPa | 0 mm | - | 33 W/m² | - |
| 1788441522 | 25.56° C | 90% | 1010.4 hPa | 0 mm | - | 29 W/m² | - |
| 1788441221 | 25.56° C | 90% | 1010.3 hPa | 0 mm | - | 25 W/m² | - |
| 1788440920 | 25.56° C | 90% | 1010.2 hPa | 0 mm | - | 16 W/m² | - |
| 1788440615 | 25.56° C | 90% | 1010.1 hPa | 0 mm | - | 13 W/m² | - |
| 1788440314 | 25.56° C | 91% | 1010.3 hPa | 0 mm | - | 11 W/m² | - |
| 1788440010 | 25.56° C | 91% | 1010.1 hPa | 0 mm | - | 18 W/m² | - |
| 1788439708 | 25.56° C | 91% | 1010.2 hPa | 0 mm | - | 12 W/m² | - |
| 1788439404 | 25.56° C | 91% | 1010.3 hPa | 0 mm | - | 11 W/m² | - |
| 1788439102 | 25.56° C | 91% | 1010.2 hPa | 0 mm | - | 9 W/m² | - |
* Rain latest hour (hover to see other rain measurements)
** Current wind speed in m/s (hover to see current wind gust speed)